EUTELSAT 33E

Last updated on Thu Nov 21 2024 00:02:41 GMT+0000 (Coordinated Universal Time)

1 33750U 09008B 24325.56105875 -.00000140 00000+0 00000+0 0 9992 2 33750 1.1967 87.3542 0003351 189.7068 96.3022 0.98942397 57683
UTC large
Height (km)
Speed (km/s)
/
Latitude / Longitude
Inclination (degrees)
Orbital Period (minutes)
Azimuth
Elevation
Range (km)
Doppler Factor

Next 0 passes for location: London (51.5072 / 0.1276)

Sorry there are no passes over London.